When you browse on this site, cookies collect data to enhance your experience and personalize the content and advertising you see.
Visit our Privacy Policy to learn more. By continuing to use the site, you agree to this use of cookies and data.
  • en France
  • Liste des pays
  • À 7 jours
  • Température de l'eau
  • Carte satellitaire
  • Carte météo
  • Widgets météo
  • user-avatar
    Se connecter

    Météo par heure à Gwatemala

    Ce jour, 16 Juillet, Mardi

    Heure Température Précipitation Vent Pression Humidité
    00:00 +18°C° 1 mm 1 m/s 637 mmHg 97%
    01:00 +18°C° 1.1 mm 1 m/s 637 mmHg 97%
    02:00 +18°C° 1.1 mm 1 m/s 637 mmHg 97%
    03:00 +18°C° 1.1 mm 1 m/s 636 mmHg 97%
    04:00 +16°C° 0 mm 1 m/s 636 mmHg 96%
    05:00 +16°C° 0 mm 1 m/s 636 mmHg 95%
    06:00 +16°C° 0 mm 1 m/s 636 mmHg 95%
    07:00 +19°C° 0 mm 1 m/s 637 mmHg 90%
    08:00 +20°C° 0 mm 1 m/s 638 mmHg 85%
    09:00 +22°C° 0 mm 1 m/s 638 mmHg 80%
    10:00 +24°C° 0 mm 1 m/s 639 mmHg 72%
    11:00 +25°C° 0 mm 1 m/s 639 mmHg 63%
    12:00 +27°C° 0 mm 1 m/s 640 mmHg 55%
    13:00 +26°C° 0.3 mm 1 m/s 639 mmHg 58%
    14:00 +26°C° 0.3 mm 1 m/s 639 mmHg 61%
    15:00 +25°C° 0.3 mm 1 m/s 638 mmHg 64%
    16:00 +24°C° 0.4 mm 1 m/s 638 mmHg 73%
    17:00 +23°C° 0.4 mm 1 m/s 637 mmHg 82%
    18:00 +21°C° 0.4 mm 1 m/s 637 mmHg 90%
    19:00 +20°C° 0.1 mm 1 m/s 637 mmHg 91%
    20:00 +19°C° 0.1 mm 1 m/s 637 mmHg 92%
    21:00 +18°C° 0.1 mm 1 m/s 637 mmHg 93%
    22:00 +18°C° 0 mm 1 m/s 637 mmHg 94%
    23:00 +18°C° 0 mm 1 m/s 637 mmHg 94%

    Demain, 17 Juillet, Mercredi

    Heure Température Précipitation Vent Pression Humidité
    00:00 +16°C° 0 mm 1 m/s 637 mmHg 95%
    01:00 +16°C° 0 mm 1 m/s 637 mmHg 95%
    02:00 +16°C° 0 mm 1 m/s 636 mmHg 95%
    03:00 +16°C° 0 mm 1 m/s 636 mmHg 95%
    04:00 +16°C° 0 mm 1 m/s 636 mmHg 95%
    05:00 +16°C° 0 mm 1 m/s 636 mmHg 94%
    06:00 +16°C° 0 mm 1 m/s 636 mmHg 94%
    07:00 +19°C° 0 mm 1 m/s 637 mmHg 87%
    08:00 +21°C° 0 mm 1 m/s 638 mmHg 80%
    09:00 +23°C° 0 mm 2 m/s 639 mmHg 72%
    10:00 +24°C° 0 mm 1 m/s 639 mmHg 66%
    11:00 +25°C° 0 mm 1 m/s 639 mmHg 62%
    12:00 +26°C° 0 mm 1 m/s 639 mmHg 59%
    13:00 +26°C° 0.3 mm 1 m/s 639 mmHg 61%
    14:00 +26°C° 0.3 mm 1 m/s 638 mmHg 63%
    15:00 +26°C° 0.3 mm 1 m/s 638 mmHg 64%
    16:00 +24°C° 0.7 mm 1 m/s 638 mmHg 74%
    17:00 +23°C° 0.7 mm 1 m/s 637 mmHg 83%
    18:00 +19°C° 0.7 mm 0 m/s 637 mmHg 93%
    19:00 +20°C° 0.4 mm 1 m/s 637 mmHg 93%
    20:00 +19°C° 0.4 mm 1 m/s 637 mmHg 94%
    21:00 +18°C° 0.4 mm 1 m/s 637 mmHg 95%
    22:00 +18°C° 0 mm 1 m/s 637 mmHg 95%
    23:00 +16°C° 0 mm 1 m/s 637 mmHg 95%

    Après-demain, 18 Juillet, Jeudi

    Heure Température Précipitation Vent Pression Humidité
    00:00 +16°C° 0 mm 1 m/s 637 mmHg 95%
    01:00 +16°C° 0 mm 1 m/s 636 mmHg 94%
    02:00 +16°C° 0 mm 1 m/s 636 mmHg 94%
    03:00 +16°C° 0 mm 1 m/s 636 mmHg 94%
    04:00 +16°C° 0 mm 1 m/s 636 mmHg 94%
    05:00 +16°C° 0 mm 1 m/s 636 mmHg 94%
    06:00 +16°C° 0 mm 1 m/s 636 mmHg 94%
    07:00 +19°C° 0 mm 1 m/s 637 mmHg 89%
    08:00 +20°C° 0 mm 1 m/s 638 mmHg 84%
    09:00 +22°C° 0 mm 1 m/s 639 mmHg 79%
    10:00 +22°C° 0.8 mm 1 m/s 638 mmHg 81%
    11:00 +23°C° 0.8 mm 1 m/s 638 mmHg 84%
    12:00 +23°C° 0.8 mm 1 m/s 638 mmHg 86%
    13:00 +23°C° 0.9 mm 1 m/s 638 mmHg 86%
    14:00 +23°C° 0.9 mm 1 m/s 637 mmHg 87%
    15:00 +22°C° 0.9 mm 1 m/s 637 mmHg 87%
    16:00 +22°C° 0.8 mm 1 m/s 637 mmHg 89%
    17:00 +21°C° 0.8 mm 1 m/s 636 mmHg 92%
    18:00 +20°C° 0.8 mm 1 m/s 636 mmHg 94%
    19:00 +20°C° 0.8 mm 1 m/s 637 mmHg 94%
    20:00 +19°C° 0.8 mm 1 m/s 637 mmHg 95%
    21:00 +19°C° 0.8 mm 1 m/s 637 mmHg 95%
    22:00 +18°C° 0.1 mm 1 m/s 637 mmHg 95%
    23:00 +18°C° 0.1 mm 1 m/s 637 mmHg 96%

    19 Juillet, Vendredi

    Heure Température Précipitation Vent Pression Humidité
    00:00 +18°C° 0.1 mm 1 m/s 637 mmHg 96%
    01:00 +16°C° 0 mm 1 m/s 636 mmHg 96%
    02:00 +16°C° 0 mm 1 m/s 636 mmHg 97%
    03:00 +16°C° 0 mm 1 m/s 635 mmHg 97%
    04:00 +15°C° 0 mm 1 m/s 635 mmHg 97%
    05:00 +15°C° 0 mm 1 m/s 635 mmHg 96%
    06:00 +15°C° 0 mm 1 m/s 636 mmHg 96%
    07:00 +18°C° 0 mm 1 m/s 636 mmHg 90%
    08:00 +20°C° 0 mm 1 m/s 637 mmHg 83%
    09:00 +21°C° 0 mm 1 m/s 638 mmHg 77%
    10:00 +23°C° 0 mm 1 m/s 639 mmHg 71%
    11:00 +24°C° 0 mm 1 m/s 639 mmHg 66%
    12:00 +26°C° 0 mm 1 m/s 639 mmHg 61%
    13:00 +25°C° 0.3 mm 1 m/s 639 mmHg 65%
    14:00 +25°C° 0.3 mm 1 m/s 638 mmHg 69%
    15:00 +24°C° 0.3 mm 1 m/s 638 mmHg 73%
    16:00 +23°C° 0.4 mm 1 m/s 637 mmHg 79%
    17:00 +22°C° 0.4 mm 1 m/s 637 mmHg 85%
    18:00 +21°C° 0.4 mm 1 m/s 637 mmHg 91%
    19:00 +20°C° 0.1 mm 1 m/s 637 mmHg 93%
    20:00 +19°C° 0.1 mm 1 m/s 637 mmHg 95%
    21:00 +18°C° 0.1 mm 1 m/s 637 mmHg 96%
    22:00 +18°C° 0 mm 1 m/s 637 mmHg 97%
    23:00 +16°C° 0 mm 1 m/s 637 mmHg 97%

    20 Juillet, Samedi

    Heure Température Précipitation Vent Pression Humidité
    00:00 +16°C° 0 mm 1 m/s 637 mmHg 97%
    01:00 +16°C° 0 mm 1 m/s 636 mmHg 97%
    02:00 +16°C° 0 mm 1 m/s 636 mmHg 97%
    03:00 +16°C° 0 mm 1 m/s 635 mmHg 96%
    04:00 +15°C° 0 mm 1 m/s 635 mmHg 95%
    05:00 +15°C° 0 mm 1 m/s 635 mmHg 94%
    06:00 +15°C° 0 mm 2 m/s 635 mmHg 93%
    07:00 +18°C° 0 mm 1 m/s 636 mmHg 86%
    08:00 +20°C° 0 mm 1 m/s 637 mmHg 78%
    09:00 +22°C° 0 mm 1 m/s 638 mmHg 70%
    10:00 +24°C° 0.1 mm 1 m/s 638 mmHg 67%
    11:00 +25°C° 0.1 mm 1 m/s 639 mmHg 64%
    12:00 +26°C° 0.1 mm 1 m/s 639 mmHg 61%
    13:00 +26°C° 0.8 mm 1 m/s 638 mmHg 67%
    14:00 +25°C° 0.8 mm 1 m/s 638 mmHg 73%
    15:00 +25°C° 0.8 mm 1 m/s 637 mmHg 79%
    16:00 +24°C° 1.2 mm 1 m/s 637 mmHg 83%
    17:00 +21°C° 1.2 mm 0 m/s 636 mmHg 88%
    18:00 +20°C° 1.2 mm 0 m/s 636 mmHg 93%
    19:00 +19°C° 1.2 mm 0 m/s 636 mmHg 93%
    20:00 +18°C° 1.2 mm 0 m/s 637 mmHg 93%
    21:00 +19°C° 1.2 mm 1 m/s 637 mmHg 94%
    22:00 +18°C° 1.6 mm 1 m/s 637 mmHg 95%
    23:00 +18°C° 1.6 mm 1 m/s 637 mmHg 96%

    21 Juillet, Dimanche

    Heure Température Précipitation Vent Pression Humidité
    00:00 +18°C° 1.6 mm 1 m/s 637 mmHg 97%
    01:00 +18°C° 4.7 mm 1 m/s 636 mmHg 97%
    02:00 +16°C° 4.7 mm 1 m/s 636 mmHg 97%
    03:00 +16°C° 4.7 mm 1 m/s 635 mmHg 97%
    04:00 +16°C° 0 mm 1 m/s 635 mmHg 96%
    05:00 +16°C° 0 mm 1 m/s 635 mmHg 95%
    06:00 +15°C° 0 mm 1 m/s 635 mmHg 95%
    07:00 +19°C° 0 mm 1 m/s 636 mmHg 88%
    08:00 +21°C° 0 mm 1 m/s 637 mmHg 81%
    09:00 +23°C° 0 mm 1 m/s 638 mmHg 74%
    10:00 +24°C° 0.1 mm 1 m/s 638 mmHg 70%
    11:00 +25°C° 0.1 mm 1 m/s 639 mmHg 67%
    12:00 +26°C° 0.1 mm 1 m/s 639 mmHg 63%
    13:00 +26°C° 1.3 mm 1 m/s 638 mmHg 70%
    14:00 +25°C° 1.3 mm 1 m/s 638 mmHg 76%
    15:00 +24°C° 1.3 mm 1 m/s 637 mmHg 82%
    16:00 +21°C° 0.6 mm 0 m/s 637 mmHg 85%
    17:00 +20°C° 0.6 mm 0 m/s 637 mmHg 89%
    18:00 +19°C° 0.6 mm 0 m/s 636 mmHg 92%
    19:00 +20°C° 0.6 mm 1 m/s 636 mmHg 93%
    20:00 +19°C° 0.6 mm 1 m/s 637 mmHg 93%
    21:00 +18°C° 0.6 mm 1 m/s 637 mmHg 94%
    22:00 +18°C° 0.5 mm 1 m/s 637 mmHg 94%
    23:00 +18°C° 0.5 mm 1 m/s 637 mmHg 94%
    Voir plus